Regional Weather Roundup
Issued by NWS

Home | Current Version | Previous Version | Text Only | Print | Product List | Glossary On
Versions: 1 2 3 4 5 6 7 8 9 10 11 12 13 14 15 16 17 18 19 20 21 22 23 24 25 26 27 28 29 30 31 32 33 34 35 36 37 38 39 40 41 42 43 44 45 46 47 48 49 50
000
ASUS44 KJAN 242010
RWRMS

MISSISSIPPI HOURLY WEATHER ROUNDUP
NATIONAL WEATHER SERVICE JACKSON MS
200 PM CST FRI FEB 24 2017

NOTE: "FAIR: INDICATES FEW OR NO CLOUDS BELOW 12,000 FEET WITH NO
SIGNIFICANT WEATHER AND/OR OBSTRUCTIONS TO VISIBILITY.

MSZ001>002-007>008-010>013-018>021-025>028-034>036-242100-
NORTHWEST MISSISSIPPI

CITY           SKY/WX    TMP DP  RH WIND       PRES   REMARKS
BATESVILLE     MOCLDY    71  56  60 SW17G25   29.71S
CLEVELAND      CLOUDY    74  58  56 SW18G26   29.70S
GREENWOOD      PTSUNNY   77  54  44 S14       29.70F
GREENVILLE     PTSUNNY   75  57  53 SW16G24   29.69F
OLIVE BRANCH   CLOUDY   N/A N/A N/A SW9       29.69S
OXFORD         FAIR      73  54  49 W12G22    29.72S
TUNICA         MOCLDY    70  57  64 SW16      29.70F
WINONA         FAIR      76  57  50 S10G18    29.71S
$$

MSZ003>006-009-014>017-022>024-029>033-037>039-242100-
NORTHEAST MISSISSIPPI

CITY           SKY/WX    TMP DP  RH WIND       PRES   REMARKS
COLUMBUS AFB   MOSUNNY   78  63  60 S14       29.70F
CORINTH        FAIR      77  50  38 SW21G26   29.66S
STARKVILLE     FAIR      79  55  44 S13G26    29.72F
TUPELO         MOSUNNY   78  54  43 SE17G25   29.69F
$$

MSZ040-058-242100-
CENTRAL MISSISSIPPI

CITY           SKY/WX    TMP DP  RH WIND       PRES   REMARKS
JACKSON INTL   MOSUNNY   79  56  45 S15G23    29.72F
JACKSON HAWKNS MOSUNNY   79  56  45 SW17G23   29.73F
MADISON          N/A    N/A N/A N/A SW13G22   29.72F
MERIDIAN KEY   MOSUNNY   80  60  50 SW18G25   29.74F
MERIDIAN NAS   MOSUNNY   81  55  40 SW9G22    29.75F
VICKSBURG VKS  CLEAR     79  57  47 W12G17    29.70F
$$

MSZ059>079-242100-
SOUTH MISSISSIPPI

CITY           SKY/WX    TMP DP  RH WIND       PRES   REMARKS
BROOKHAVEN     FAIR      82  57  42 S15G21    29.77F
HATTIESBURG    MOSUNNY   78  59  51 S13       29.77F
LAUREL         FAIR      79  57  46 SW12G20   29.76F
MCCOMB         SUNNY     79  55  43 SW13G23   29.76F
NATCHEZ        SUNNY     79  57  47 SW16      29.74F
PINE BELT      SUNNY     79  57  47 S16G23    29.78F
$$

MSZ080>082-242100-
COASTAL MISSISSIPPI

CITY           SKY/WX    TMP DP  RH WIND       PRES   REMARKS
BILOXI         SUNNY     73  67  79 S7        29.81F
PASCAGOULA     PTSUNNY   75  62  64 S12       29.83F
GULFPORT       PTSUNNY   74  66  76 S8        29.81F
$$

LAZ007>009-015>016-023>026-242100-
NORTHEAST LOUISIANA

CITY           SKY/WX    TMP DP  RH WIND       PRES   REMARKS
BASTROP        FAIR      80  58  46 SW10G16   29.71S
TALLULAH/VBURG MOSUNNY   78  57  48 S12G20    29.73F
VIDALIA        MOCLDY    76  61  59 S17G25    29.73F
$$



USA.gov is the U.S. government's official web portal to all federal, state and local government web resources and services.